Regional Weather Roundup
Issued by NWS Huntsville, AL

Home | Current Version | Previous Version | Text Only | Print | Product List | Glossary On
Versions: 1 2 3 4 5 6 7 8 9 10 11 12 13 14 15 16 17 18 19 20 21 22 23 24 25 26 27 28 29 30 31 32 33 34 35 36 37 38 39 40 41 42 43 44 45 46 47 48 49 50
000
ASUS44 KHUN 280310
RWRHUN

WEATHER ROUNDUP FOR THE TENNESSEE VALLEY
NATIONAL WEATHER SERVICE HUNTSVILLE AL
1000 PM CDT SAT MAY 27 2017

ALZ001>004-280400-
NORTHWEST ALABAMA

CITY           SKY/WX    TMP DP  RH WIND       PRES   REMARKS
COURTLAND HCN    N/A     77 N/A N/A S3          N/A
RUSSELLVILLE     N/A     75 N/A N/A MISG        N/A
SHOALS AIRPORT CLOUDY    77  72  84 S5        29.90S
SHOALS TVA RES   N/A     77 N/A N/A MISG        N/A
$$

ALZ005>007-016-280400-
NORTH CENTRAL ALABAMA

CITY           SKY/WX    TMP DP  RH WIND       PRES   REMARKS
CULLMAN AG STN   N/A     75 N/A N/A CALM        N/A
DECATUR AP     CLOUDY    77  73  87 SE3       29.92R
HUNTSVILLE AP  CLOUDY    79  74  84 CALM      29.93R
MERIDIANVILLE  CLOUDY    77  70  78 CALM      29.96R
REDSTONE ARSN  CLOUDY    76  73  90 NE3       29.92R
VINEMONT AP    FAIR      75  71  86 SW6       29.96S
$$

ALZ008>010-280400-
NORTHEAST ALABAMA

CITY           SKY/WX    TMP DP  RH WIND       PRES   REMARKS
ALBERTVILLE    CLOUDY    77  77 100 CALM      29.95R
FORT PAYNE     MOCLDY    72  68  88 NE3       29.96R
SCOTTSBORO AP  CLOUDY    75  73  94 CALM      29.96R
VALLEY HEAD      N/A     70 N/A N/A MISG        N/A
$$

TNZ076-096-097-280400-
SOUTHEASTERN MIDDLE TENNESSEE

CITY           SKY/WX    TMP DP  RH WIND       PRES   REMARKS
TULLAHOMA      MOCLDY    64  61  88 N9        30.03R
$$

...SURROUNDING SITES...

CITY           SKY/WX    TMP DP  RH WIND       PRES   REMARKS
ATLANTA        MOCLDY    75  69  81 SW6       29.98R
ANNISTON       CLOUDY    76  70  82 CALM      29.95S
BIRMINGHAM     PTCLDY    80  70  71 S7        29.95F
CHATTANOOGA    CLOUDY    77  69  76 E3        29.97R
CORINTH        MOCLDY    77  73  88 CALM      29.86F
DALTON         CLOUDY    72  72 100 CALM      29.98R
GADSDEN        CLOUDY    78  72  81 SW3       29.94R
GOLDEN TRNGL   CLOUDY    81  70  69 S7        29.85R
HALEYVILLE     CLOUDY    76  73  91 S5        29.95R
JACKSON TN     CLOUDY    65  64  97 E9        29.89F THUNDER
MEMPHIS        CLOUDY    83  74  74 S6        29.83S
NASHVILLE      CLOUDY    66  63  90 W5        29.92F THUNDER
OXFORD MS      MOCLDY    79  72  78 S6        29.88S
ROME           CLOUDY    76  72  87 NE5       29.95R
SAVANNAH       CLOUDY    66  63  88 NE13G22   29.90F
SELMER         CLOUDY    66  63  88 E13G23    29.91R
TUPELO         CLOUDY    81  72  74 SE5       29.87R
TUSCALOOSA     CLEAR     77  72  84 S6        29.90S
$$

...GULF COAST WEATHER...

CITY           SKY/WX    TMP DP  RH WIND       PRES   REMARKS
GULFPORT       PTCLDY    80  78  94 S9        29.96S
PASCAGOULA     CLOUDY    80  75  84 S6        29.98R
MOBILE         MOCLDY    77  74  90 S5        29.99R
GULF SHORES    CLOUDY    78  78 100 SW9       29.99R
PENSACOLA      CLOUDY    78  76  93 SW8       29.99R
DESTIN         CLOUDY    81  81 100 VRB3      30.00R HX  92
PANAMA CITY    CLEAR     78  74  90 SW6       30.01R
APPALACHICOLA  CLEAR     78  76  93 SW9       30.00S
$$




USA.gov is the U.S. government's official web portal to all federal, state and local government web resources and services.